Regional Weather Roundup
Issued by NWS

Home | Current Version | Previous Version | Text Only | Print | Product List | Glossary On
Versions: 1 2 3 4 5 6 7 8 9 10 11 12 13 14 15 16 17 18 19 20 21 22 23 24 25 26 27 28 29 30 31 32 33 34 35 36 37 38 39 40 41 42 43 44 45 46 47 48 49 50
000
ASUS44 KJAN 251403
RWRMS

MISSISSIPPI HOURLY WEATHER ROUNDUP
NATIONAL WEATHER SERVICE JACKSON MS
900 AM CDT MON JUL 25 2016

NOTE: "FAIR: INDICATES FEW OR NO CLOUDS BELOW 12,000 FEET WITH NO
SIGNIFICANT WEATHER AND/OR OBSTRUCTIONS TO VISIBILITY.

MSZ001>002-007>008-010>013-018>021-025>028-034>036-251500-
NORTHWEST MISSISSIPPI

CITY           SKY/WX    TMP DP  RH WIND       PRES   REMARKS
CLEVELAND      FAIR      83  80  92 SE7       30.00S HX  95
GREENWOOD      SUNNY     84  72  67 S5        30.03R
GREENVILLE     SUNNY     82  75  79 SE5       30.01S
OXFORD         FAIR      81  73  78 S5        30.04F
WINONA         FAIR      79  75  89 CALM      30.04S
$$

MSZ003>006-009-014>017-022>024-029>033-037>039-251500-
NORTHEAST MISSISSIPPI

CITY           SKY/WX    TMP DP  RH WIND       PRES   REMARKS
ABERDEEN       FAIR      82  64  54 SE6       30.06S
COLUMBUS AFB   NOT AVBL
GOLDN TRIANGLE SUNNY     82  72  69 CALM      30.03F
TUPELO         SUNNY     83  74  74 SE7       30.04S
$$

MSZ040-058-251500-
CENTRAL MISSISSIPPI

CITY           SKY/WX    TMP DP  RH WIND       PRES   REMARKS
JACKSON INTL   SUNNY     83  74  74 CALM      30.04R
JACKSON HAWKNS MOSUNNY   82  73  74 CALM      30.04S
MADISON        FAIR      81  72  74 CALM      30.03S
MERIDIAN KEY   MOSUNNY   84  76  76 VRB6      30.05S HX  93
MERIDIAN NAS   MOSUNNY   84  72  67 VRB6      30.06R
VICKSBURG VKS  SUNNY     81  75  83 CALM      30.02S
$$

MSZ059>079-251500-
SOUTH MISSISSIPPI

CITY           SKY/WX    TMP DP  RH WIND       PRES   REMARKS
BROOKHAVEN     FAIR     N/A N/A N/A CALM      30.05S
COLUMBIA       FAIR      82  77  83 NE8       30.06S HX  91
HATTIESBURG    MOSUNNY   81  76  84 E6        30.03R
MCCOMB         MOSUNNY   81  75  82 E5        30.03S
NATCHEZ        SUNNY     79  73  83 E3        30.02S
PINE BELT      SUNNY     79  73  83 NE7       30.05R
$$

MSZ080>082-251500-
COASTAL MISSISSIPPI

CITY           SKY/WX    TMP DP  RH WIND       PRES   REMARKS
BAY ST LOUIS   PTSUNNY   79  73  83 VRB6      30.00R
BILOXI         CLOUDY    80  78  93 E9        29.98F
PASCAGOULA     MOSUNNY   82  79  90 E7        30.00S HX  92
GULFPORT       CLOUDY    83  77  82 E6        29.99S HX  92
$$

LAZ007>009-015>016-023>026-251500-
NORTHEAST LOUISIANA

CITY           SKY/WX    TMP DP  RH WIND       PRES   REMARKS
BASTROP        FAIR      77  76  98 E3        30.02S
TALLULAH/VBURG MOSUNNY   83  75  77 SE7       30.01F HX  90
VIDALIA        FAIR      81  74  81 CALM      30.04S
$$



USA.gov is the U.S. government's official web portal to all federal, state and local government web resources and services.